This is the latest recevied weather packets stored in our database for station/object KB1YYC. If no packets are shown the sender has not sent any weather packets the latest 10 day(s).
| Time | Temp. | Humidity | Pressure | Rain* | Wind** | Luminosity | Snow |
|---|---|---|---|---|---|---|---|
| 1778152953 | 7.78° C | 98% | 1007 hPa | 0 mm | - | 38 W/m² | - |
| 1778152651 | 7.78° C | 98% | 1007 hPa | 0 mm | - | 39 W/m² | - |
| 1778152347 | 7.78° C | 98% | 1007.1 hPa | 0 mm | - | 38 W/m² | - |
| 1778152043 | 7.78° C | 98% | 1007.3 hPa | 0 mm | - | 28 W/m² | - |
| 1778151740 | 7.78° C | 98% | 1007.4 hPa | 0 mm | - | 30 W/m² | - |
| 1778151437 | 7.78° C | 98% | 1007.4 hPa | 0 mm | - | 34 W/m² | - |
| 1778151133 | 8.33° C | 99% | 1007.5 hPa | 0 mm | - | 31 W/m² | - |
| 1778150831 | 8.33° C | 99% | 1007.3 hPa | 0 mm | - | 47 W/m² | - |
| 1778150527 | 7.78° C | 99% | 1006.9 hPa | 0 mm | - | 47 W/m² | - |
| 1778150223 | 8.33° C | 99% | 1007.3 hPa | 0 mm | - | 35 W/m² | - |
| 1778149919 | 7.78° C | 99% | 1007.7 hPa | 0 mm | - | 42 W/m² | - |
| 1778149616 | 7.78° C | 99% | 1007.6 hPa | 0 mm | - | 23 W/m² | - |
| 1778149313 | 7.78° C | 98% | 1007.1 hPa | 0 mm | - | 30 W/m² | - |
| 1778149008 | 7.78° C | 98% | 1007.3 hPa | 0 mm | - | 19 W/m² | - |
| 1778148704 | 7.78° C | 98% | 1007.7 hPa | 0 mm | - | 17 W/m² | - |
| 1778148402 | 7.78° C | 98% | 1007.5 hPa | 0 mm | - | 19 W/m² | - |
| 1778148100 | 7.78° C | 98% | 1007.3 hPa | 0 mm | - | 14 W/m² | - |
| 1778147798 | 7.78° C | 97% | 1007.5 hPa | 0 mm | - | 7 W/m² | - |
| 1778147494 | 7.78° C | 97% | 1007.2 hPa | 0 mm | - | 4 W/m² | - |
| 1778147190 | 7.78° C | 97% | 1007.5 hPa | 0 mm | - | 4 W/m² | - |
| 1778146887 | 7.78° C | 97% | 1007.4 hPa | 0 mm | - | 2 W/m² | - |
| 1778146585 | 7.78° C | 97% | 1007.3 hPa | 0 mm | - | 2 W/m² | - |
| 1778146283 | 7.78° C | 96% | 1007.1 hPa | 0 mm | - | 2 W/m² | - |
| 1778145979 | 7.78° C | 96% | 1007 hPa | 0 mm | - | 1 W/m² | - |
| 1778145676 | 7.78° C | 96% | 1007 hPa | 0 mm | - | 0 W/m² | - |
* Rain latest hour (hover to see other rain measurements)
** Current wind speed in m/s (hover to see current wind gust speed)